Weather in Dänew

Turkmenistan     39°15′36″N   63°11′20″E
temp.,
°C
wind,
m/s
gust,
m/s
humid.,
%
clouds,
%
prec.,
mm/h
press.,
hPa
HPBL,
m
12 august, fri
fri1223:00+26n59240 0.0 1009137
02:00+25n511270 0.0 1009194
05:00+24nne512320 0.0 1009196
08:00+27nne913280 0.0 1010650
11:00+32nne1011190 0.0 10091781
14:00+36nne1011140 0.0 10072250
17:00+36nne1011130 0.0 10062472
20:00+32nne611160 0.0 1006184
13 august, sat
sat1323:00+29nne715200 0.0 1007305
02:00+27n613230 0.0 1007233
05:00+25nne613250 0.0 1008251
08:00+28nne914250 0.0 1008716
11:00+33nne910190 0.0 10081829
14:00+37nne99130 0.0 10052338
17:00+37nne910110 0.0 10032698
20:00+33n612150 0.0 1003179
14 august, sun
sun1423:00+30n614180 0.0 1003256
02:00+29nne815210 0.0 1003361
05:00+26nne613260 0.0 1004251
08:00+29nne913220 0.0 1005562
11:00+35nne910160 0.0 10041557
14:00+38nne98130 0.0 10032529
17:00+38n98110 0.0 10022740
20:00+33n56130 0.0 100258
15 august, mon
mon1523:00+30n511170 0.0 1003161
02:00+28n510200 0.0 1003143
05:00+26nnw59230 0.0 1003119
08:00+30nnw610200 0.0 1004328
11:00+37nnw88140 0.0 10041943
14:00+39n66110 0.0 10033100
17:00+40nne77100 0.0 10023467
20:00+34n611140 0.0 1003159
16 august, tue
tue1623:00+31nnw612160 0.0 1004166
02:00+29n514210 0.0 1004237
05:00+27n512250 0.0 1005181
08:00+31n711210 0.0 1006418
11:00+37n88140 0.0 10062287
14:00+39n88110 0.0 10052799
17:00+39n1010110 0.0 10043063
20:00+34n612150 0.0 1005210